humankinetics.com alexa rank chart, humankinetics.com alexa rank daily changes

humankinetics.com alexa rank chart, humankinetics.com alexa rank daily changes

humankinetics.com
Actual rank:
42 299

RANK HISTORY

Date Rank Diff
2017/06/26 42 299 +749
2017/06/25 41 550 +37
2017/06/24 41 513 -995
2017/06/23 42 508 -45
2017/06/22 42 553 +380
2017/06/21 42 173 +290
2017/06/20 41 883 +505
2017/06/19 41 378 -231
2017/06/18 41 609 +204
2017/06/17 41 405 +758
2017/06/16 40 647 +412
2017/06/15 40 235 +386
2017/06/14 39 849 -47
2017/06/13 39 896 +33
2017/06/12 39 863 +847
2017/06/11 39 016 +119
2017/06/10 38 897 +145
2017/06/09 38 752 +258
2017/06/08 38 494 -66
2017/06/07 38 560 -108
2017/06/06 38 668 +129
2017/06/05 38 539 +354
2017/06/04 38 185 +807
2017/06/03 37 378 +502
2017/06/02 36 876 +648
2017/06/01 36 228 +305
2017/05/31 35 923 +118
2017/05/30 35 805 +17
2017/05/29 35 788 +312
2017/05/28 35 476 +406
2017/05/27 35 070 +269
2017/05/26 34 801 +160
2017/05/25 34 641 +286
2017/05/24 34 355 +254
2017/05/23 34 101 +19
2017/05/22 34 082 +24
2017/05/21 34 058 +186
2017/05/20 33 872 -85
2017/05/19 33 957 +613
2017/05/18 33 344 -334
2017/05/17 33 678 -465
2017/05/16 34 143 -217
2017/05/15 34 360 +87
2017/05/14 34 273 +452
2017/05/13 33 821 -302
2017/05/12 34 123 -271
2017/05/11 34 394 +296
2017/05/10 34 098 +274
2017/05/09 33 824 -123
2017/05/08 33 947 +313
2017/05/07 33 634 +187
2017/05/06 33 447 +15
2017/05/05 33 432 -32
2017/05/04 33 464 -444
2017/05/03 33 908 -818
2017/05/02 34 726 -71
2017/05/01 34 797 -81
2017/04/30 34 878 +467
2017/04/29 34 411 +200
2017/04/28 34 211 +172
2017/04/27 34 039

WIDGET FOR YOUR SITE

DOMAINS WITH THE NEAREST RANK

Domain Rank
indiamike.com 42 294
cavemancircus.com 42 295
nova.gr 42 296
howdesign.com 42 297
attracta.com 42 298
humankinetics.com 42 299
quipper.com 42 300
displays2go.com 42 301
guerrillamail.com 42 302
nigerianbulletin.com 42 303
china-b.com 42 304

DOMAINS WITH THE NEAREST RANK BY TLD .com

Domain Rank
videostudiopro.com 42 293
indiamike.com 42 294
cavemancircus.com 42 295
howdesign.com 42 297
attracta.com 42 298
humankinetics.com 42 299
quipper.com 42 300
displays2go.com 42 301
guerrillamail.com 42 302
nigerianbulletin.com 42 303
china-b.com 42 304